CZ-6A DEB, 55537

Orbit data source: Space-Track

CZ-6A DEB, 55537 is space debris in SSO originally from a launch on Fri, 11 Nov 2022 UTC launched from the Taiyaun Space Center, China (TSC). Debris objects in space refer to the collection of defunct objects orbiting the Earth. Examples of debris include non-operational satellites, rocket bodies, and fragments generated from explosions, collisions, or faulty payload assembly.

Loading next visibility...
Identifier
55537, 2022-151YK
Orbit
SSO
Country
Flag of CNCN / PRC
Related business
Manufacturer
SAST
Mission
Spacecraft
Bus & Motor
Unknown
Mass
Unknown
Launch date (UTC)
2022-11-11 (3 years ago)
Launch vehicle
Unknown
Launch site
Taiyaun Space Center, China (TSC)
Object type
Payload
Rocket body
Debris
Shape & HBR
Unknown shape, 0.1 m
Radar Cross Section
Small (<0.1 m²)

Expand to show TLE details & history
Last TLE update: 21 hours ago

TLE from 21 hours ago
0 CZ-6A DEB
1 55537U 22151YK  26130.09565208  .00008668  00000-0  13556-2 0  9993
2 55537  98.6248 193.0412 0068403  48.0994 312.6017 14.71466287179215
Epoch: 2026-05-10T02:17Z
TLE epoch observation values (Epoch: 2026-05-10T02:17:44.339Z)
Latitude
-0.00009°
Longitude
-69.29718°
Altitude
626.98 km
Speed
7.562 km/s
True Right ascension
12h 52m 09s
True Declination
0° 00' 00"
Sunlit
Object was in full shadow at epoch
Visualization orbit readout
Latitude
Unknown
Longitude
Unknown
Altitude
Unknown
Speed
Unknown
Apparent Right ascension
Unknown
Apparent Declination
Unknown
Sunlit
N/A
Visualization observer readout
Local Sidereal Time
07:23:52
Azimuth
Unknown
Elevation
Unknown
Doppler factor
Unknown
Orbital elements
Apogee altitude
701.575 km
Perigee altitude
605.379 km
Semi-major axis
7,031.614 km
Eccentricity
0.00684
Inclination
98.6248°
RAAN
193.0412°
Arg. of periapsis
48.0994°
True anomaly
312.02138°
Mean anomaly
312.6017°
Eccentric anomaly
312.31188°
Mean motion
3.68096 °/min
Orbital period
97.8 mins
BSTAR
0.0013556
Loading maneuver chart data...
Computing Atmospheric mass density...
Loading historical data...
Loading historical data...
Loading historical data...
Loading historical data...
Loading historical data...
Loading historical data...
Loading historical data...

Documentation

Showing up to 5 results
|